Bewolking Meer informatie Parkstad Weather Satellite


Neerslagradar Meer informatie Parkstad Rain Snow Radar


Onweersbuien Meer informatie Parkstad Lighntning


24/7 Weercamera Meer informatie Parkstad Weathercam


Natuurbrandrisico
CBI








Het weer levert geen direct gevaar op in Parkstad.    Er zijn geen waarschuwingen afgegeven voor Parkstad (045)

Select another period ( hide this area )

Eenheden Periode Custom range Directly to
Metrisch Engels Beide
Dagelijkse Wekelijkse Maandelijkse Jaarlijkse
use both date-selectors for a custom range
previous Dag
With this date
Dagelijkse Samenvatting Zondag 16 januari 2022
Tijd Temp. ( °C ) Dew pt. ( °C ) Wind ( km/h ) van Windvlaag ( km/h ) Luchtdruk ( hPa ) Humid.( % ) Rainrate ( cm ) Zonneschijn ( W/m2 )
Hoog3,7 3,2 26,0 WZW ( 2742/3885 ) 27,0 1029,8 100 0,25 100
Gemiddeld2,5 2,0 15,9 WZW #153/244 19,1 1025,8 97 0,50 35 #87/244
Laag-0,3 -0,3 -   0,0 1023,4 90 -  
Dagelijkse Tabular details for Zondag 16 januari 2022
Tijd Temp. ( °C ) Dew pt. ( °C ) Wind ( km/h ) van Windvlaag ( km/h ) Luchtdruk ( hPa ) Humid.( % ) Rainrate ( cm ) Zonneschijn ( W/m2 )
00:04 -0,1 -0,1   Windstil   1024,0 100 - -
00:09 -0,1 -0,1   Windstil 2,0 1024,0 100 - -
00:14 -0,1 -0,1 1,0 Oosten 2,0 1024,0 100 - -
00:19 -0,1 -0,1 1,0 Oosten 2,0 1024,0 100 - -
00:24 -0,2 -0,2 1,0 Oosten 2,0 1024,0 100 - -
00:29 -0,2 -0,2 1,0 Oosten 3,0 1024,0 100 - -
00:34 -0,2 -0,2 1,0 ONO 2,0 1024,0 100 - -
00:39 -0,2 -0,2 5,0 ZZW 5,0 1024,0 100 - -
00:44 -0,2 -0,2   Windstil 2,0 1024,0 100 - -
00:49 -0,2 -0,2 3,0 ZW 5,0 1024,0 100 - -
00:54 -0,2 -0,2 1,0 ZW 2,0 1024,0 100 - -
00:59 -0,2 -0,2 1,0 ZW 3,0 1024,0 100 - -
01:04 -0,2 -0,2 3,0 ZW 3,0 1023,7 100 - -
01:09 -0,3 -0,3 3,0 ZW 3,0 1023,7 100 - -
01:14 -0,3 -0,3 5,0 ZZW 5,0 1024,4 100 - -
01:19 -0,3 -0,3 6,0 ZW 8,0 1024,4 100 - -
01:24 -0,1 -0,1 10,0 ZW 10,0 1024,4 100 - -
01:29 -0,1 -0,1 10,0 ZW 10,0 1024,4 100 - -
01:34 0,1 0,1 8,0 WZW 10,0 1024,0 100 - -
01:39 0,2 0,2 10,0 ZW 11,0 1024,0 100 - -
01:44 0,4 0,4 11,0 WZW 11,0 1024,4 100 - -
01:49 0,5 0,5 10,0 WZW 11,0 1024,4 100 - -
01:54 0,7 0,7 14,0 WZW 18,0 1024,4 100 - -
01:59 0,8 0,8 16,0 WZW 18,0 1024,4 100 - -
02:04 0,9 0,9 14,0 ZW 16,0 1024,4 100 - -
02:09 1,0 1,0 11,0 ZW 18,0 1024,4 100 - -
02:14 1,0 1,0 11,0 WZW 11,0 1024,4 100 - -
02:19 1,1 1,1 13,0 ZW 15,0 1024,4 100 - -
02:24 1,1 1,1 16,0 WZW 16,0 1024,4 100 - -
02:29 1,1 1,1 11,0 ZW 13,0 1024,7 100 - -
02:34 1,1 1,1 11,0 ZW 16,0 1024,7 100 - -
02:39 1,1 1,1 10,0 ZW 11,0 1024,7 100 - -
02:44 1,1 1,1 13,0 ZW 13,0 1024,7 100 - -
02:49 1,1 1,1 11,0 WZW 11,0 1023,7 100 - -
02:54 1,1 1,1 8,0 ZW 13,0 1023,7 100 - -
02:59 1,1 1,1 10,0 ZW 10,0 1024,0 100 - -
03:04 1,2 1,2 11,0 WZW 11,0 1024,0 100 - -
03:09 1,2 1,2 11,0 ZW 11,0 1024,0 100 - -
03:14 1,2 1,2 15,0 ZW 15,0 1024,4 100 - -
03:19 1,2 1,2 10,0 ZW 11,0 1024,4 100 - -
03:24 1,2 1,2 8,0 ZW 15,0 1024,4 100 - -
03:29 1,2 1,2 10,0 ZZW 15,0 1024,4 100 - -
03:34 1,3 1,3 8,0 ZW 10,0 1024,4 100 - -
03:39 1,3 1,3 13,0 ZW 15,0 1024,4 100 - -
03:44 1,3 1,3 13,0 ZW 13,0 1024,4 100 - -
03:49 1,3 1,3 13,0 ZW 13,0 1024,4 100 - -
03:54 1,4 1,4 14,0 ZW 15,0 1024,4 100 - -
03:59 1,5 1,5 16,0 ZW 18,0 1024,4 100 - -
04:04 1,5 1,5 11,0 ZW 18,0 1024,0 100 - -
04:09 1,5 1,5 11,0 ZW 15,0 1024,0 100 - -
04:14 1,5 1,5 10,0 ZW 11,0 1024,0 100 - -
04:19 1,5 1,5 10,0 ZW 15,0 1023,7 100 - -
04:24 1,4 1,4 14,0 ZW 16,0 1023,7 100 - -
04:29 1,5 1,5 13,0 ZW 16,0 1024,0 100 - -
04:34 1,5 1,5 20,0 ZW 19,0 1024,0 100 - -
04:39 1,5 1,5 14,0 ZW 19,0 1024,0 100 - -
04:44 1,6 1,6 14,0 ZW 19,0 1024,0 100 - -
04:49 1,6 1,6 16,0 ZW 19,0 1023,4 100 - -
04:54 1,6 1,6 16,0 WZW 16,0 1023,4 100 - -
04:59 1,6 1,6 16,0 WZW 18,0 1024,0 100 - -
05:04 1,6 1,6 13,0 ZW 13,0 1024,0 100 - -
05:09 1,7 1,7 16,0 ZW 18,0 1024,0 100 - -
05:14 1,7 1,7 20,0 WZW 21,0 1024,0 100 - -
05:19 1,8 1,8 13,0 ZW 15,0 1023,7 100 - -
05:24 1,8 1,8 14,0 WZW 21,0 1023,7 100 - -
05:29 1,8 1,8 13,0 ZW 15,0 1024,0 100 - -
05:34 1,9 1,8 11,0 ZW 16,0 1024,0 100 - -
05:39 1,9 1,8 18,0 ZW 18,0 1024,0 99 - -
05:44 2,0 1,9 13,0 ZW 18,0 1024,0 99 - -
05:49 2,1 2,0 11,0 WZW 13,0 1024,0 99 - -
05:54 2,1 2,0 16,0 WZW 16,0 1024,0 99 - -
05:59 2,2 2,1 11,0 ZW 15,0 1024,0 99 - -
06:04 2,2 2,1 14,0 WZW 21,0 1024,0 99 - -
06:09 2,2 2,1 14,0 WZW 15,0 1024,0 99 - -
06:14 2,2 1,9 13,0 WZW 21,0 1024,0 98 - -
06:19 2,2 1,9 14,0 WZW 15,0 1024,0 98 - -
06:24 2,3 2,0 11,0 WZW 15,0 1024,0 98 - -
06:29 2,3 2,0 11,0 WZW 13,0 1024,0 98 - -
06:34 2,3 1,9 11,0 ZW 18,0 1024,0 97 - -
06:39 2,4 2,0 21,0 WZW 21,0 1024,0 97 - -
06:44 2,4 2,0 16,0 ZW 21,0 1024,0 97 - -
06:49 2,5 2,1 18,0 ZW 21,0 1024,0 97 - -
06:54 2,5 1,9 13,0 WZW 21,0 1024,0 96 - -
06:59 2,5 1,9 20,0 ZW 19,0 1024,0 96 - -
07:04 2,6 2,0 16,0 WZW 16,0 1024,0 96 - -
07:09 2,6 2,0 21,0 WZW 21,0 1024,0 96 - -
07:14 2,6 1,9 16,0 ZW 21,0 1024,0 95 - -
07:19 2,7 2,0 14,0 WZW 21,0 1024,0 95 - -
07:24 2,7 2,0 16,0 WZW 21,0 1024,0 95 - -
07:29 2,7 2,0 13,0 WZW 18,0 1024,0 95 - -
07:34 2,7 2,0 23,0 WZW 23,0 1024,0 95 - -
07:39 2,7 1,8 18,0 WZW 18,0 1024,0 94 - -
07:44 2,7 1,8 21,0 ZW 24,0 1024,4 94 - -
07:49 2,7 1,8 13,0 ZW 24,0 1024,4 94 - -
07:54 2,7 1,8 16,0 WZW 19,0 1024,4 94 - -
07:59 2,7 1,8 20,0 WZW 19,0 1024,7 94 - -
08:04 2,7 1,8 20,0 ZW 21,0 1024,7 94 - -
08:09 2,7 1,7 21,0 WZW 23,0 1024,7 93 - -
08:14 2,6 1,6 18,0 WZW 18,0 1024,7 93 - -
08:19 2,6 1,6 24,0 WZW 26,0 1024,7 93 - -
08:24 2,6 1,6 24,0 WZW 26,0 1024,7 93 - -
08:29 2,5 1,5 24,0 WZW 26,0 1025,1 93 - -
08:34 2,5 1,5 18,0 WZW 26,0 1025,1 93 - -
08:39 2,5 1,5 20,0 WZW 21,0 1025,1 93 - -
08:44 2,5 1,5 24,0 WZW 24,0 1025,1 93 - -
08:49 2,5 1,5 20,0 WZW 19,0 1025,1 93 - -
08:54 2,5 1,5 16,0 WZW 21,0 1025,1 93 - -
08:59 2,5 1,5 23,0 WZW 23,0 1025,4 93 - -
09:04 2,5 1,5 21,0 ZW 23,0 1025,4 93 - -
09:09 2,5 1,5 23,0 WZW 23,0 1025,4 93 - 9
09:14 2,5 1,5 16,0 WZW 23,0 1025,4 93 - 11
09:19 2,5 1,5 21,0 WZW 21,0 1025,4 93 - 11
09:24 2,6 1,6 20,0 WZW 23,0 1025,4 93 - 11
09:29 2,6 1,6 16,0 WZW 16,0 1025,4 93 - 12
09:34 2,7 1,7 18,0 ZW 23,0 1025,4 93 - 11
09:39 2,7 1,7 23,0 WZW 23,0 1025,4 93 - 16
09:44 2,7 1,7 20,0 WZW 19,0 1025,4 93 - 18
09:49 2,7 1,7 14,0 WZW 23,0 1025,4 93 - 18
09:54 2,7 1,7 13,0 WZW 16,0 1025,4 93 - 18
09:59 2,7 1,7 20,0 WZW 26,0 1025,7 93 - 19
10:04 2,7 1,7 16,0 WZW 26,0 1025,7 93 - 19
10:09 2,7 1,7 13,0 ZW 26,0 1025,7 93 - 26
10:14 2,7 1,7 11,0 WZW 26,0 1025,7 93 - 28
10:19 2,8 1,8 18,0 ZW 21,0 1025,7 93 - 28
10:24 2,9 1,9 14,0 WZW 18,0 1025,7 93 - 32
10:29 2,9 1,9 13,0 WZW 21,0 1026,1 93 - 32
10:34 2,9 1,9 20,0 WZW 19,0 1026,1 93 - 30
10:39 3,1 2,1 16,0 WZW 21,0 1026,1 93 - 35
10:44 3,1 2,1 18,0 WZW 23,0 1026,1 93 - 35
10:49 3,1 2,1 14,0 WZW 23,0 1026,1 93 - 32
10:54 3,1 2,1 20,0 WZW 23,0 1026,1 93 - 30
10:59 3,1 2,1 11,0 WZW 23,0 1026,4 93 - 32
11:04 3,1 2,1 23,0 WZW 24,0 1026,4 93 - 28
11:09 3,1 2,1 18,0 WZW 24,0 1026,4 93 - 30
11:14 3,1 2,1 21,0 WZW 23,0 1026,4 93 - 28
11:19 3,1 1,9 23,0 WZW 24,0 1026,4 92 - 25
11:24 3,1 1,9 21,0 WZW 24,0 1026,4 92 - 21
11:29 3,1 1,9 14,0 WZW 24,0 1026,4 92 - 19
11:34 3,1 1,9 24,0 WZW 26,0 1026,4 92 - 21
11:39 3,2 2,0 20,0 ZW 26,0 1026,4 92 - 42
11:44 3,2 2,0 20,0 WZW 27,0 1026,4 92 - 74
11:49 3,3 2,1 21,0 ZW 24,0 1026,4 92 - 90
11:54 3,3 2,1 20,0 WZW 27,0 1026,4 92 - 77
11:59 3,4 2,2 26,0 WZW 26,0 1026,4 92 - 100
12:04 3,5 2,2 14,0 ZW 18,0 1026,4 92 - 97
12:09 3,5 2,2 26,0 ZW 26,0 1026,4 91 - 76
12:14 3,6 2,3 14,0 WZW 15,0 1026,8 91 - 58
12:19 3,6 2,3 14,0 WZW 19,0 1026,8 91 - 53
12:24 3,6 2,3 18,0 WZW 23,0 1026,8 91 - 40
12:29 3,6 2,1 18,0 WZW 19,0 1026,8 90 - 35
12:34 3,6 2,3 20,0 WZW 24,0 1026,8 91 - 35
12:39 3,6 2,3 20,0 WZW 21,0 1026,8 91 - 33
12:44 3,6 2,3 24,0 WZW 26,0 1026,8 91 - 35
12:49 3,6 2,3 20,0 WZW 26,0 1026,8 91 - 58
12:54 3,5 2,3 18,0 WZW 26,0 1026,8 92 - 77
12:59 3,6 2,4 20,0 WZW 26,0 1026,8 92 - 90
13:04 3,7 2,5 18,0 WZW 18,0 1026,8 92 - 88
13:09 3,7 2,6 23,0 WZW 24,0 1026,8 93 - 58
13:14 3,6 2,6 21,0 WZW 23,0 1026,8 93 - 47
13:19 3,5 2,5 18,0 ZW 24,0 1026,4 93 - 49
13:24 3,5 2,5 23,0 ZW 24,0 1026,4 94 - 46
13:29 3,4 2,5 21,0 WZW 23,0 1026,4 94 - 49
13:34 3,4 2,5 20,0 WZW 24,0 1026,4 94 - 46
13:39 3,4 2,7 23,0 WZW 24,0 1026,4 95 - 39
13:44 3,4 2,7 20,0 ZW 24,0 1026,4 95 - 40
13:49 3,4 2,7 18,0 WZW 24,0 1026,4 95 - 40
13:54 3,4 2,7 18,0 WZW 18,0 1026,4 95 - 28
13:59 3,4 2,7 20,0 WZW 21,0 1026,4 95 - 35
14:04 3,5 2,8 23,0 WZW 23,0 1026,4 95 - 47
14:09 3,5 2,8 20,0 WZW 26,0 1026,4 95 - 53
14:14 3,5 2,8 16,0 WZW 26,0 1026,4 95 - 47
14:19 3,5 2,8 18,0 ZW 26,0 1026,4 95 - 44
14:24 3,5 2,8 21,0 WZW 26,0 1026,4 95 - 47
14:29 3,5 2,8 18,0 WZW 21,0 1026,4 95 - 44
14:34 3,5 2,8 18,0 WZW 23,0 1026,4 95 - 21
14:39 3,5 2,8 18,0 WZW 19,0 1026,4 95 - 16
14:44 3,5 2,8 16,0 WZW 23,0 1026,8 95 - 14
14:49 3,5 2,8 16,0 WZW 18,0 1026,8 95 - 18
14:54 3,5 2,8 20,0 WZW 23,0 1026,8 95 0,25 39
14:59 3,5 2,9 21,0 WZW 26,0 1026,8 96 0,25 40
15:04 3,6 3,0 13,0 ZW 18,0 1026,8 96 0,25 40
15:09 3,6 3,0 24,0 WZW 26,0 1026,8 96 0,25 42
15:14 3,6 3,0 18,0 WZW 19,0 1026,8 96 0,25 28
15:19 3,6 3,0 24,0 WZW 24,0 1026,8 96 0,25 26
15:24 3,6 3,0 20,0 ZW 19,0 1026,8 96 0,25 23
15:29 3,6 3,0 24,0 WZW 26,0 1027,1 96 0,25 21
15:34 3,5 3,1 16,0 WZW 26,0 1027,1 97 0,25 18
15:39 3,6 3,2 18,0 WZW 26,0 1027,1 97 0,25 18
15:44 3,6 3,2 13,0 WZW 26,0 1027,1 97 0,25 14
15:49 3,5 3,1 21,0 WZW 21,0 1027,1 97 0,25 11
15:54 3,5 3,1 16,0 WZW 24,0 1027,1 97 0,25 11
15:59 3,5 3,1 18,0 WZW 21,0 1027,1 97 - 9
16:04 3,5 3,1 14,0 WZW 21,0 1027,1 97 - 9
16:09 3,5 3,1 14,0 WZW 21,0 1027,1 97 - 9
16:14 3,5 3,1 14,0 WZW 19,0 1027,4 97 - 7
16:19 3,5 3,1 14,0 WZW 23,0 1027,4 97 - 7
16:24 3,4 3,1 14,0 WZW 18,0 1027,4 98 - -
16:29 3,4 3,1 16,0 ZW 23,0 1027,4 98 - -
16:34 3,4 3,1 20,0 WZW 21,0 1027,4 98 - -
16:39 3,4 3,1 16,0 ZW 18,0 1027,4 98 - -
16:44 3,4 3,1 19,0 ZW 19,0 1027,4 98 - -
16:49 3,4 3,1 20,0 ZW 21,0 1027,4 98 - -
16:54 3,4 3,1 16,0 WZW 21,0 1027,4 98 - -
16:59 3,4 3,1 13,0 WZW 21,0 1027,4 98 - -
17:04 3,4 3,1 18,0 WZW 19,0 1027,4 98 - -
17:09 3,4 3,1 16,0 WZW 18,0 1027,4 98 - -
17:14 3,4 3,1 13,0 WZW 19,0 1028,1 98 - -
17:19 3,5 3,2 16,0 WZW 21,0 1028,1 98 - -
17:24 3,4 3,1 20,0 WZW 21,0 1028,1 98 - -
17:29 3,4 3,1 21,0 WZW 21,0 1028,1 98 - -
17:34 3,4 3,1 16,0 ZW 21,0 1028,1 98 - -
17:39 3,4 3,1 18,0 WZW 21,0 1028,1 98 - -
17:44 3,4 3,1 21,0 WZW 24,0 1028,5 98 - -
17:49 3,4 3,1 20,0 WZW 21,0 1028,5 98 - -
17:54 3,4 3,1 14,0 ZW 18,0 1028,5 98 - -
17:59 3,4 3,0 21,0 WZW 21,0 1028,5 97 - -
18:04 3,4 3,0 20,0 WZW 19,0 1028,5 97 - -
18:09 3,4 3,0 18,0 WZW 24,0 1028,5 97 - -
18:14 3,4 3,0 23,0 WZW 27,0 1028,5 97 - -
18:19 3,4 3,0 20,0 WZW 23,0 1028,1 97 - -
18:24 3,5 3,1 23,0 WZW 27,0 1028,1 97 - -
18:29 3,5 3,1 24,0 WZW 24,0 1028,5 97 - -
18:34 3,5 3,1 23,0 WZW 24,0 1028,5 97 - -
18:39 3,5 3,1 16,0 ZW 24,0 1028,5 97 - -
18:44 3,5 3,1 18,0 ZW 23,0 1028,8 97 - -
18:49 3,4 3,0 21,0 WZW 24,0 1028,8 97 - -
18:54 3,4 3,0 23,0 WZW 23,0 1028,8 97 - -
18:59 3,4 3,0 16,0 WZW 23,0 1028,8 97 - -
19:04 3,4 3,0 20,0 WZW 21,0 1028,8 97 - -
19:09 3,3 2,9 18,0 ZW 21,0 1028,8 97 - -
19:14 3,3 2,9 18,0 WZW 18,0 1029,1 97 - -
19:19 3,3 2,9 14,0 WZW 21,0 1029,1 97 - -
19:24 3,3 2,9 16,0 WZW 23,0 1029,1 97 - -
19:29 3,3 2,9 16,0 WZW 18,0 1029,5 97 - -
19:34 3,3 2,9 23,0 WZW 23,0 1029,5 97 - -
19:39 3,3 3,0 18,0 WZW 21,0 1029,5 98 - -
19:44 3,3 3,0 16,0 ZW 21,0 1029,5 98 - -
19:49 3,3 3,0 21,0 ZW 21,0 1029,5 98 - -
19:54 3,3 3,0 18,0 WZW 19,0 1029,5 98 - -
19:59 3,3 3,0 18,0 WZW 23,0 1029,8 98 - -
20:04 3,3 3,0 18,0 WZW 23,0 1029,8 98 - -
20:09 3,3 3,0 14,0 WZW 18,0 1029,8 98 - -
20:14 3,2 2,9 20,0 ZW 23,0 1029,8 98 - -
20:19 3,2 2,9 18,0 WZW 23,0 1029,8 98 - -
Dagelijkse Samenvatting Zondag 16 januari 2022
Tijd Temp. ( °C ) Dew pt. ( °C ) Wind ( km/h ) van Windvlaag ( km/h ) Luchtdruk ( hPa ) Humid.( % ) Rainrate ( cm ) Zonneschijn ( W/m2 )
Hoog3,7 3,2 26,0 WZW ( 2742/3885 ) 27,0 1029,8 100 0,25 100
Gemiddeld2,5 2,0 15,9 WZW #153/244 19,1 1025,8 97 0,50 35 #87/244
Laag-0,3 -0,3 -   0,0 1023,4 90 -  
Dagelijkse Tabular details for Zondag 16 januari 2022
Tijd Temp. ( °C ) Dew pt. ( °C ) Wind ( km/h ) van Windvlaag ( km/h ) Luchtdruk ( hPa ) Humid.( % ) Rainrate ( cm ) Zonneschijn ( W/m2 )
00:04 -0,1 -0,1   Windstil   1024,0 100 - -
00:09 -0,1 -0,1   Windstil 2,0 1024,0 100 - -
00:14 -0,1 -0,1 1,0 Oosten 2,0 1024,0 100 - -
00:19 -0,1 -0,1 1,0 Oosten 2,0 1024,0 100 - -
00:24 -0,2 -0,2 1,0 Oosten 2,0 1024,0 100 - -
00:29 -0,2 -0,2 1,0 Oosten 3,0 1024,0 100 - -
00:34 -0,2 -0,2 1,0 ONO 2,0 1024,0 100 - -
00:39 -0,2 -0,2 5,0 ZZW 5,0 1024,0 100 - -
00:44 -0,2 -0,2   Windstil 2,0 1024,0 100 - -
00:49 -0,2 -0,2 3,0 ZW 5,0 1024,0 100 - -
00:54 -0,2 -0,2 1,0 ZW 2,0 1024,0 100 - -
00:59 -0,2 -0,2 1,0 ZW 3,0 1024,0 100 - -
01:04 -0,2 -0,2 3,0 ZW 3,0 1023,7 100 - -
01:09 -0,3 -0,3 3,0 ZW 3,0 1023,7 100 - -
01:14 -0,3 -0,3 5,0 ZZW 5,0 1024,4 100 - -
01:19 -0,3 -0,3 6,0 ZW 8,0 1024,4 100 - -
01:24 -0,1 -0,1 10,0 ZW 10,0 1024,4 100 - -
01:29 -0,1 -0,1 10,0 ZW 10,0 1024,4 100 - -
01:34 0,1 0,1 8,0 WZW 10,0 1024,0 100 - -
01:39 0,2 0,2 10,0 ZW 11,0 1024,0 100 - -
01:44 0,4 0,4 11,0 WZW 11,0 1024,4 100 - -
01:49 0,5 0,5 10,0 WZW 11,0 1024,4 100 - -
01:54 0,7 0,7 14,0 WZW 18,0 1024,4 100 - -
01:59 0,8 0,8 16,0 WZW 18,0 1024,4 100 - -
02:04 0,9 0,9 14,0 ZW 16,0 1024,4 100 - -
02:09 1,0 1,0 11,0 ZW 18,0 1024,4 100 - -
02:14 1,0 1,0 11,0 WZW 11,0 1024,4 100 - -
02:19 1,1 1,1 13,0 ZW 15,0 1024,4 100 - -
02:24 1,1 1,1 16,0 WZW 16,0 1024,4 100 - -
02:29 1,1 1,1 11,0 ZW 13,0 1024,7 100 - -
02:34 1,1 1,1 11,0 ZW 16,0 1024,7 100 - -
02:39 1,1 1,1 10,0 ZW 11,0 1024,7 100 - -
02:44 1,1 1,1 13,0 ZW 13,0 1024,7 100 - -
02:49 1,1 1,1 11,0 WZW 11,0 1023,7 100 - -
02:54 1,1 1,1 8,0 ZW 13,0 1023,7 100 - -
02:59 1,1 1,1 10,0 ZW 10,0 1024,0 100 - -
03:04 1,2 1,2 11,0 WZW 11,0 1024,0 100 - -
03:09 1,2 1,2 11,0 ZW 11,0 1024,0 100 - -
03:14 1,2 1,2 15,0 ZW 15,0 1024,4 100 - -
03:19 1,2 1,2 10,0 ZW 11,0 1024,4 100 - -
03:24 1,2 1,2 8,0 ZW 15,0 1024,4 100 - -
03:29 1,2 1,2 10,0 ZZW 15,0 1024,4 100 - -
03:34 1,3 1,3 8,0 ZW 10,0 1024,4 100 - -
03:39 1,3 1,3 13,0 ZW 15,0 1024,4 100 - -
03:44 1,3 1,3 13,0 ZW 13,0 1024,4 100 - -
03:49 1,3 1,3 13,0 ZW 13,0 1024,4 100 - -
03:54 1,4 1,4 14,0 ZW 15,0 1024,4 100 - -
03:59 1,5 1,5 16,0 ZW 18,0 1024,4 100 - -
04:04 1,5 1,5 11,0 ZW 18,0 1024,0 100 - -
04:09 1,5 1,5 11,0 ZW 15,0 1024,0 100 - -
04:14 1,5 1,5 10,0 ZW 11,0 1024,0 100 - -
04:19 1,5 1,5 10,0 ZW 15,0 1023,7 100 - -
04:24 1,4 1,4 14,0 ZW 16,0 1023,7 100 - -
04:29 1,5 1,5 13,0 ZW 16,0 1024,0 100 - -
04:34 1,5 1,5 20,0 ZW 19,0 1024,0 100 - -
04:39 1,5 1,5 14,0 ZW 19,0 1024,0 100 - -
04:44 1,6 1,6 14,0 ZW 19,0 1024,0 100 - -
04:49 1,6 1,6 16,0 ZW 19,0 1023,4 100 - -
04:54 1,6 1,6 16,0 WZW 16,0 1023,4 100 - -
04:59 1,6 1,6 16,0 WZW 18,0 1024,0 100 - -
05:04 1,6 1,6 13,0 ZW 13,0 1024,0 100 - -
05:09 1,7 1,7 16,0 ZW 18,0 1024,0 100 - -
05:14 1,7 1,7 20,0 WZW 21,0 1024,0 100 - -
05:19 1,8 1,8 13,0 ZW 15,0 1023,7 100 - -
05:24 1,8 1,8 14,0 WZW 21,0 1023,7 100 - -
05:29 1,8 1,8 13,0 ZW 15,0 1024,0 100 - -
05:34 1,9 1,8 11,0 ZW 16,0 1024,0 100 - -
05:39 1,9 1,8 18,0 ZW 18,0 1024,0 99 - -
05:44 2,0 1,9 13,0 ZW 18,0 1024,0 99 - -
05:49 2,1 2,0 11,0 WZW 13,0 1024,0 99 - -
05:54 2,1 2,0 16,0 WZW 16,0 1024,0 99 - -
05:59 2,2 2,1 11,0 ZW 15,0 1024,0 99 - -
06:04 2,2 2,1 14,0 WZW 21,0 1024,0 99 - -
06:09 2,2 2,1 14,0 WZW 15,0 1024,0 99 - -
06:14 2,2 1,9 13,0 WZW 21,0 1024,0 98 - -
06:19 2,2 1,9 14,0 WZW 15,0 1024,0 98 - -
06:24 2,3 2,0 11,0 WZW 15,0 1024,0 98 - -
06:29 2,3 2,0 11,0 WZW 13,0 1024,0 98 - -
06:34 2,3 1,9 11,0 ZW 18,0 1024,0 97 - -
06:39 2,4 2,0 21,0 WZW 21,0 1024,0 97 - -
06:44 2,4 2,0 16,0 ZW 21,0 1024,0 97 - -
06:49 2,5 2,1 18,0 ZW 21,0 1024,0 97 - -
06:54 2,5 1,9 13,0 WZW 21,0 1024,0 96 - -
06:59 2,5 1,9 20,0 ZW 19,0 1024,0 96 - -
07:04 2,6 2,0 16,0 WZW 16,0 1024,0 96 - -
07:09 2,6 2,0 21,0 WZW 21,0 1024,0 96 - -
07:14 2,6 1,9 16,0 ZW 21,0 1024,0 95 - -
07:19 2,7 2,0 14,0 WZW 21,0 1024,0 95 - -
07:24 2,7 2,0 16,0 WZW 21,0 1024,0 95 - -
07:29 2,7 2,0 13,0 WZW 18,0 1024,0 95 - -
07:34 2,7 2,0 23,0 WZW 23,0 1024,0 95 - -
07:39 2,7 1,8 18,0 WZW 18,0 1024,0 94 - -
07:44 2,7 1,8 21,0 ZW 24,0 1024,4 94 - -
07:49 2,7 1,8 13,0 ZW 24,0 1024,4 94 - -
07:54 2,7 1,8 16,0 WZW 19,0 1024,4 94 - -
07:59 2,7 1,8 20,0 WZW 19,0 1024,7 94 - -
08:04 2,7 1,8 20,0 ZW 21,0 1024,7 94 - -
08:09 2,7 1,7 21,0 WZW 23,0 1024,7 93 - -
08:14 2,6 1,6 18,0 WZW 18,0 1024,7 93 - -
08:19 2,6 1,6 24,0 WZW 26,0 1024,7 93 - -
08:24 2,6 1,6 24,0 WZW 26,0 1024,7 93 - -
08:29 2,5 1,5 24,0 WZW 26,0 1025,1 93 - -
08:34 2,5 1,5 18,0 WZW 26,0 1025,1 93 - -
08:39 2,5 1,5 20,0 WZW 21,0 1025,1 93 - -
08:44 2,5 1,5 24,0 WZW 24,0 1025,1 93 - -
08:49 2,5 1,5 20,0 WZW 19,0 1025,1 93 - -
08:54 2,5 1,5 16,0 WZW 21,0 1025,1 93 - -
08:59 2,5 1,5 23,0 WZW 23,0 1025,4 93 - -
09:04 2,5 1,5 21,0 ZW 23,0 1025,4 93 - -
09:09 2,5 1,5 23,0 WZW 23,0 1025,4 93 - 9
09:14 2,5 1,5 16,0 WZW 23,0 1025,4 93 - 11
09:19 2,5 1,5 21,0 WZW 21,0 1025,4 93 - 11
09:24 2,6 1,6 20,0 WZW 23,0 1025,4 93 - 11
09:29 2,6 1,6 16,0 WZW 16,0 1025,4 93 - 12
09:34 2,7 1,7 18,0 ZW 23,0 1025,4 93 - 11
09:39 2,7 1,7 23,0 WZW 23,0 1025,4 93 - 16
09:44 2,7 1,7 20,0 WZW 19,0 1025,4 93 - 18
09:49 2,7 1,7 14,0 WZW 23,0 1025,4 93 - 18
09:54 2,7 1,7 13,0 WZW 16,0 1025,4 93 - 18
09:59 2,7 1,7 20,0 WZW 26,0 1025,7 93 - 19
10:04 2,7 1,7 16,0 WZW 26,0 1025,7 93 - 19
10:09 2,7 1,7 13,0 ZW 26,0 1025,7 93 - 26
10:14 2,7 1,7 11,0 WZW 26,0 1025,7 93 - 28
10:19 2,8 1,8 18,0 ZW 21,0 1025,7 93 - 28
10:24 2,9 1,9 14,0 WZW 18,0 1025,7 93 - 32
10:29 2,9 1,9 13,0 WZW 21,0 1026,1 93 - 32
10:34 2,9 1,9 20,0 WZW 19,0 1026,1 93 - 30
10:39 3,1 2,1 16,0 WZW 21,0 1026,1 93 - 35
10:44 3,1 2,1 18,0 WZW 23,0 1026,1 93 - 35
10:49 3,1 2,1 14,0 WZW 23,0 1026,1 93 - 32
10:54 3,1 2,1 20,0 WZW 23,0 1026,1 93 - 30
10:59 3,1 2,1 11,0 WZW 23,0 1026,4 93 - 32
11:04 3,1 2,1 23,0 WZW 24,0 1026,4 93 - 28
11:09 3,1 2,1 18,0 WZW 24,0 1026,4 93 - 30
11:14 3,1 2,1 21,0 WZW 23,0 1026,4 93 - 28
11:19 3,1 1,9 23,0 WZW 24,0 1026,4 92 - 25
11:24 3,1 1,9 21,0 WZW 24,0 1026,4 92 - 21
11:29 3,1 1,9 14,0 WZW 24,0 1026,4 92 - 19
11:34 3,1 1,9 24,0 WZW 26,0 1026,4 92 - 21
11:39 3,2 2,0 20,0 ZW 26,0 1026,4 92 - 42
11:44 3,2 2,0 20,0 WZW 27,0 1026,4 92 - 74
11:49 3,3 2,1 21,0 ZW 24,0 1026,4 92 - 90
11:54 3,3 2,1 20,0 WZW 27,0 1026,4 92 - 77
11:59 3,4 2,2 26,0 WZW 26,0 1026,4 92 - 100
12:04 3,5 2,2 14,0 ZW 18,0 1026,4 92 - 97
12:09 3,5 2,2 26,0 ZW 26,0 1026,4 91 - 76
12:14 3,6 2,3 14,0 WZW 15,0 1026,8 91 - 58
12:19 3,6 2,3 14,0 WZW 19,0 1026,8 91 - 53
12:24 3,6 2,3 18,0 WZW 23,0 1026,8 91 - 40
12:29 3,6 2,1 18,0 WZW 19,0 1026,8 90 - 35
12:34 3,6 2,3 20,0 WZW 24,0 1026,8 91 - 35
12:39 3,6 2,3 20,0 WZW 21,0 1026,8 91 - 33
12:44 3,6 2,3 24,0 WZW 26,0 1026,8 91 - 35
12:49 3,6 2,3 20,0 WZW 26,0 1026,8 91 - 58
12:54 3,5 2,3 18,0 WZW 26,0 1026,8 92 - 77
12:59 3,6 2,4 20,0 WZW 26,0 1026,8 92 - 90
13:04 3,7 2,5 18,0 WZW 18,0 1026,8 92 - 88
13:09 3,7 2,6 23,0 WZW 24,0 1026,8 93 - 58
13:14 3,6 2,6 21,0 WZW 23,0 1026,8 93 - 47
13:19 3,5 2,5 18,0 ZW 24,0 1026,4 93 - 49
13:24 3,5 2,5 23,0 ZW 24,0 1026,4 94 - 46
13:29 3,4 2,5 21,0 WZW 23,0 1026,4 94 - 49
13:34 3,4 2,5 20,0 WZW 24,0 1026,4 94 - 46
13:39 3,4 2,7 23,0 WZW 24,0 1026,4 95 - 39
13:44 3,4 2,7 20,0 ZW 24,0 1026,4 95 - 40
13:49 3,4 2,7 18,0 WZW 24,0 1026,4 95 - 40
13:54 3,4 2,7 18,0 WZW 18,0 1026,4 95 - 28
13:59 3,4 2,7 20,0 WZW 21,0 1026,4 95 - 35
14:04 3,5 2,8 23,0 WZW 23,0 1026,4 95 - 47
14:09 3,5 2,8 20,0 WZW 26,0 1026,4 95 - 53
14:14 3,5 2,8 16,0 WZW 26,0 1026,4 95 - 47
14:19 3,5 2,8 18,0 ZW 26,0 1026,4 95 - 44
14:24 3,5 2,8 21,0 WZW 26,0 1026,4 95 - 47
14:29 3,5 2,8 18,0 WZW 21,0 1026,4 95 - 44
14:34 3,5 2,8 18,0 WZW 23,0 1026,4 95 - 21
14:39 3,5 2,8 18,0 WZW 19,0 1026,4 95 - 16
14:44 3,5 2,8 16,0 WZW 23,0 1026,8 95 - 14
14:49 3,5 2,8 16,0 WZW 18,0 1026,8 95 - 18
14:54 3,5 2,8 20,0 WZW 23,0 1026,8 95 0,25 39
14:59 3,5 2,9 21,0 WZW 26,0 1026,8 96 0,25 40
15:04 3,6 3,0 13,0 ZW 18,0 1026,8 96 0,25 40
15:09 3,6 3,0 24,0 WZW 26,0 1026,8 96 0,25 42
15:14 3,6 3,0 18,0 WZW 19,0 1026,8 96 0,25 28
15:19 3,6 3,0 24,0 WZW 24,0 1026,8 96 0,25 26
15:24 3,6 3,0 20,0 ZW 19,0 1026,8 96 0,25 23
15:29 3,6 3,0 24,0 WZW 26,0 1027,1 96 0,25 21
15:34 3,5 3,1 16,0 WZW 26,0 1027,1 97 0,25 18
15:39 3,6 3,2 18,0 WZW 26,0 1027,1 97 0,25 18
15:44 3,6 3,2 13,0 WZW 26,0 1027,1 97 0,25 14
15:49 3,5 3,1 21,0 WZW 21,0 1027,1 97 0,25 11
15:54 3,5 3,1 16,0 WZW 24,0 1027,1 97 0,25 11
15:59 3,5 3,1 18,0 WZW 21,0 1027,1 97 - 9
16:04 3,5 3,1 14,0 WZW 21,0 1027,1 97 - 9
16:09 3,5 3,1 14,0 WZW 21,0 1027,1 97 - 9
16:14 3,5 3,1 14,0 WZW 19,0 1027,4 97 - 7
16:19 3,5 3,1 14,0 WZW 23,0 1027,4 97 - 7
16:24 3,4 3,1 14,0 WZW 18,0 1027,4 98 - -
16:29 3,4 3,1 16,0 ZW 23,0 1027,4 98 - -
16:34 3,4 3,1 20,0 WZW 21,0 1027,4 98 - -
16:39 3,4 3,1 16,0 ZW 18,0 1027,4 98 - -
16:44 3,4 3,1 19,0 ZW 19,0 1027,4 98 - -
16:49 3,4 3,1 20,0 ZW 21,0 1027,4 98 - -
16:54 3,4 3,1 16,0 WZW 21,0 1027,4 98 - -
16:59 3,4 3,1 13,0 WZW 21,0 1027,4 98 - -
17:04 3,4 3,1 18,0 WZW 19,0 1027,4 98 - -
17:09 3,4 3,1 16,0 WZW 18,0 1027,4 98 - -
17:14 3,4 3,1 13,0 WZW 19,0 1028,1 98 - -
17:19 3,5 3,2 16,0 WZW 21,0 1028,1 98 - -
17:24 3,4 3,1 20,0 WZW 21,0 1028,1 98 - -
17:29 3,4 3,1 21,0 WZW 21,0 1028,1 98 - -
17:34 3,4 3,1 16,0 ZW 21,0 1028,1 98 - -
17:39 3,4 3,1 18,0 WZW 21,0 1028,1 98 - -
17:44 3,4 3,1 21,0 WZW 24,0 1028,5 98 - -
17:49 3,4 3,1 20,0 WZW 21,0 1028,5 98 - -
17:54 3,4 3,1 14,0 ZW 18,0 1028,5 98 - -
17:59 3,4 3,0 21,0 WZW 21,0 1028,5 97 - -
18:04 3,4 3,0 20,0 WZW 19,0 1028,5 97 - -
18:09 3,4 3,0 18,0 WZW 24,0 1028,5 97 - -
18:14 3,4 3,0 23,0 WZW 27,0 1028,5 97 - -
18:19 3,4 3,0 20,0 WZW 23,0 1028,1 97 - -
18:24 3,5 3,1 23,0 WZW 27,0 1028,1 97 - -
18:29 3,5 3,1 24,0 WZW 24,0 1028,5 97 - -
18:34 3,5 3,1 23,0 WZW 24,0 1028,5 97 - -
18:39 3,5 3,1 16,0 ZW 24,0 1028,5 97 - -
18:44 3,5 3,1 18,0 ZW 23,0 1028,8 97 - -
18:49 3,4 3,0 21,0 WZW 24,0 1028,8 97 - -
18:54 3,4 3,0 23,0 WZW 23,0 1028,8 97 - -
18:59 3,4 3,0 16,0 WZW 23,0 1028,8 97 - -
19:04 3,4 3,0 20,0 WZW 21,0 1028,8 97 - -
19:09 3,3 2,9 18,0 ZW 21,0 1028,8 97 - -
19:14 3,3 2,9 18,0 WZW 18,0 1029,1 97 - -
19:19 3,3 2,9 14,0 WZW 21,0 1029,1 97 - -
19:24 3,3 2,9 16,0 WZW 23,0 1029,1 97 - -
19:29 3,3 2,9 16,0 WZW 18,0 1029,5 97 - -
19:34 3,3 2,9 23,0 WZW 23,0 1029,5 97 - -
19:39 3,3 3,0 18,0 WZW 21,0 1029,5 98 - -
19:44 3,3 3,0 16,0 ZW 21,0 1029,5 98 - -
19:49 3,3 3,0 21,0 ZW 21,0 1029,5 98 - -
19:54 3,3 3,0 18,0 WZW 19,0 1029,5 98 - -
19:59 3,3 3,0 18,0 WZW 23,0 1029,8 98 - -
20:04 3,3 3,0 18,0 WZW 23,0 1029,8 98 - -
20:09 3,3 3,0 14,0 WZW 18,0 1029,8 98 - -
20:14 3,2 2,9 20,0 ZW 23,0 1029,8 98 - -
20:19 3,2 2,9 18,0 WZW 23,0 1029,8 98 - -

Download your copy of this data-set  here

U vindt ons ook hier:

Het Weer Aktueel

WOW Nederland KNMI

Vereniging voor Weerkunde en Klimatologie

UK Met Office Weather Observation Website (WOW)

WeatherCloud

Weather Underground

Awekas

MeteoMap.Cloud

HAMweather, WeatherForYou, PWS Weather

Citizen Weather Observer Program (CWOP)

Apparatuur in gebruik:

Hardwareleverancier
Weerhuisje

Weerstation
Vantage Pro2+ UV

Weercomputer's
alix3d2 & wl330n

Weerprogramma's
Smartbedded

Satelliet NOAA's
WRX137 & KX137

Satelliet Eumetsat
Ayecka SR1 & Triax

Bliksemdetectie
Boltek StormTracker

Webleverancier
F-Service

Weerhuisje

Vantage Pro2+ UV

alix3d2 & wl330n

Smartbedded

WRX137 & KX137

Ayecka SR1 & Triax

Boltek StormTracker

F-Service